Tracking 19246 objects as of 19-Aug-2018
HD Live streaming from Space Station
objects crossing your sky now

NOAA 16 DEB

Track NOAA 16 DEB now!
10-day predictions


NORAD ID: 41398
Int'l Code: 2000-055KB
Perigee: 828.3 km
Apogee: 860.8 km
Inclination: 98.9 °
Period: 101.7 minutes
Semi major axis: 7215 km
RCS: Unknown
Launch date: September 21, 2000
Source: United States (US)
Launch site: AIR FORCE WESTERN TEST RANGE (AFWTR)

Note: This is SATELLITE DEBRIS
aabbcc
Your satellite tracking list
Your tracking list is empty




NASA's NSSDC Master Catalog

Two Line Element Set (TLE):
1 41398U 00055KB  18231.47933825 +.00000590 +00000-0 +31846-3 0  9990
2 41398 098.8638 310.6792 0022479 181.2224 178.8899 14.16438318127820
Source of the keplerian elements: AFSPC